GFSGBSN_925_temp_156.txt.gz
Temp
14 14 14 14 14 14 14 14 14 14 13 13 13 13 13 13 13 13 14 14 14 13 14 14 15 16 18 22 22 19 19 19 20 20 22 23 24 24 25 24 24 25 25 25 25 24 24
13 13 14 13 13 13 13 14 14 14 13 13 13 13 13 13 13 13 13 13 13 13 13 14 14 15 18 21 19 18 19 19 20 21 22 23 23 23 24 24 24 23 24 25 25 25 23
12 12 11 11 12 12 12 12 13 13 13 13 13 13 13 13 12 12 12 12 12 12 12 13 13 13 17 20 18 18 18 19 19 20 22 21 21 23 22 23 22 22 23 25 25 24 22
11 11 11 10 10 10 11 12 12 12 12 12 12 13 12 12 12 12 12 12 12 12 13 13 13 13 19 18 17 18 19 20 19 20 20 20 20 21 22 21 22 23 23 25 25 23 22
9 9 10 11 10 10 10 10 11 12 11 12 12 12 12 12 12 12 12 11 11 12 12 13 13 15 19 17 19 18 18 20 20 20 19 19 20 20 21 22 23 23 24 24 24 23 22
10 9 9 10 9 9 9 9 9 10 10 10 11 11 12 11 12 11 11 11 11 12 12 12 12 15 18 20 19 18 18 19 20 20 20 21 21 22 22 23 24 23 23 24 24 23 22
9 9 9 9 9 9 9 8 9 9 9 9 9 10 10 11 11 10 10 11 14 15 13 18 19 18 19 18 17 19 19 20 21 21 21 20 22 23 23 21 21 20 21 22 23 21 21
9 9 9 9 8 8 8 8 8 8 8 8 8 9 9 10 10 9 10 14 14 13 16 16 16 16 16 15 17 20 18 20 20 21 20 20 22 23 20 20 20 20 21 21 22 21 20
9 9 9 8 8 8 8 8 8 8 8 8 8 8 8 9 9 9 12 12 11 11 15 16 15 16 17 16 18 19 19 20 20 20 20 21 22 20 20 21 20 21 21 22 21 21 20
9 9 8 8 8 8 8 8 8 8 7 8 8 8 8 8 9 10 11 10 10 11 14 17 15 16 15 16 16 18 18 20 19 19 20 20 20 19 20 20 21 21 22 21 21 20 21
9 9 8 8 8 8 8 7 7 7 7 7 7 8 7 8 9 11 10 9 10 12 16 16 15 15 16 16 17 17 17 18 18 19 18 19 18 18 18 20 20 20 20 20 21 21 21
8 8 8 8 8 7 7 7 7 7 7 7 7 7 7 7 8 8 9 10 11 14 15 16 16 15 15 16 17 17 17 18 18 18 18 18 20 19 19 20 19 20 19 20 20 20 19
8 8 8 8 8 7 7 7 7 7 6 7 7 7 7 8 10 9 9 11 13 14 16 16 16 16 17 16 17 17 17 17 18 17 18 18 18 19 19 18 19 19 19 18 18 18 18
7 8 8 8 8 7 7 7 7 6 6 7 7 7 7 7 8 8 10 12 12 15 15 15 16 16 16 17 17 17 17 18 18 18 18 18 18 18 19 18 18 19 18 17 17 18 20
7 7 8 7 7 7 7 6 7 6 6 7 7 7 7 7 8 8 12 11 15 15 15 15 16 16 16 17 16 16 17 18 18 18 17 17 17 19 18 19 19 18 17 19 17 18 17
7 7 7 7 7 7 7 6 6 6 6 7 7 7 7 7 8 9 11 12 13 12 13 14 16 16 16 16 16 14 17 17 17 18 19 18 16 19 19 19 19 18 20 17 17 14 15
6 7 6 6 7 7 6 6 6 5 6 6 7 8 6 7 8 10 9 12 12 12 13 14 14 15 15 15 15 15 16 17 17 18 17 18 17 17 18 17 18 18 17 17 18 14 15
5 7 6 6 7 7 6 6 6 5 5 6 7 7 5 7 8 10 10 11 10 12 12 13 13 14 14 14 14 15 15 16 16 16 16 17 16 15 17 19 19 18 18 18 15 14 16
4 6 7 6 6 6 6 6 6 5 5 6 7 6 5 7 8 9 10 10 11 11 12 12 12 13 13 13 13 14 15 16 16 16 15 16 15 14 16 17 18 17 18 18 17 17 14
5 4 7 6 6 6 6 6 5 5 5 7 7 5 5 7 10 11 10 10 9 10 11 11 11 12 12 12 13 13 13 14 14 14 13 14 14 14 14 16 16 15 17 17 16 12 14
4 5 6 6 6 6 6 6 5 5 5 6 7 7 8 6 6 9 10 10 10 9 10 11 10 11 11 11 12 12 13 13 14 13 14 14 13 15 15 16 16 16 16 16 15 15 13
4 5 6 6 6 6 6 5 5 5 6 5 4 7 8 9 8 8 8 8 9 10 10 10 10 12 12 11 12 12 12 12 12 14 14 14 13 14 14 16 16 14 15 16 16 15 15
4 4 6 6 6 6 6 6 5 5 5 5 6 7 10 8 8 7 8 9 9 9 10 11 11 11 11 12 12 12 11 11 11 12 12 12 12 12 13 15 13 11 12 14 15 16 16
3 5 5 6 6 6 6 6 6 6 5 5 7 7 9 8 9 8 9 8 9 10 10 11 11 10 12 11 11 10 10 10 10 11 13 11 12 12 12 14 11 14 15 15 13 14 14
4 5 5 5 6 6 6 6 6 5 5 5 5 7 8 8 9 9 9 9 9 9 9 10 11 11 11 6 7 8 10 10 11 12 13 13 12 11 11 13 15 16 17 12 12 14 16
5 5 5 5 6 6 6 6 6 5 5 5 5 5 7 8 9 10 10 10 9 10 10 11 12 11 10 6 8 9 11 12 12 12 14 13 13 11 12 11 13 15 15 14 14 13 16
5 5 5 5 6 6 6 5 5 5 4 4 5 5 4 5 7 7 8 9 10 9 9 10 10 7 7 7 9 11 12 13 12 12 10 10 10 11 12 11 13 16 15 14 13 13 13
5 5 5 5 5 6 5 5 5 4 4 4 5 4 5 4 8 7 9 8 9 8 9 8 7 6 6 8 10 11 12 13 13 14 13 12 12 12 12 11 11 15 13 13 12 10 10
5 5 5 5 6 5 5 5 5 4 4 4 5 4 4 5 7 6 7 8 8 9 7 6 8 8 9 10 12 12 12 12 13 13 14 12 14 12 12 14 12 14 12 11 11 10 9

GFSGBSN_925_temp_159.txt.gz
Temp
14 14 14 14 14 14 14 14 14 14 14 13 13 13 13 13 14 14 14 14 14 14 14 15 15 16 18 24 25 21 21 21 22 23 25 26 27 27 27 28 28 28 29 28 28 27 28
14 14 14 14 14 14 14 14 14 14 14 13 13 13 13 13 13 13 13 13 13 13 13 14 14 15 20 22 22 21 21 22 23 24 25 25 26 26 26 27 27 27 27 28 28 28 27
13 13 13 13 13 13 13 14 13 14 14 13 13 13 13 13 13 12 13 13 13 13 13 13 14 14 19 22 21 22 21 22 22 23 25 24 24 25 26 27 26 26 25 28 28 28 27
11 12 12 11 12 12 12 12 12 12 13 13 13 13 13 13 13 12 12 12 12 12 13 13 14 15 20 22 21 21 22 22 22 22 23 23 23 25 25 26 26 26 26 26 29 28 27
11 10 11 10 11 11 12 12 12 12 12 12 12 12 12 12 12 12 12 12 12 12 13 13 15 18 21 20 21 22 22 23 23 22 22 22 23 25 24 25 26 26 26 27 27 27 27
11 11 11 11 11 11 11 12 13 11 11 11 11 11 12 12 12 12 12 12 13 12 14 14 16 17 21 23 22 21 22 22 23 23 23 23 24 25 26 26 26 27 27 27 27 27 26
10 10 9 9 10 10 10 10 10 11 10 10 10 10 11 11 11 11 11 13 16 17 16 21 22 22 22 21 20 22 22 22 23 23 23 24 24 25 27 27 25 25 25 25 27 27 24
10 10 9 9 9 9 9 9 9 9 9 9 9 9 10 10 11 11 11 17 18 15 18 21 20 21 21 20 20 23 22 22 23 23 25 24 23 26 25 24 24 24 24 25 26 27 23
9 10 9 9 9 9 8 8 8 8 8 8 9 9 9 10 10 10 14 16 15 15 18 21 20 20 21 20 20 22 23 23 23 23 24 23 25 24 23 23 23 24 24 24 25 26 24
9 9 9 9 8 8 8 8 8 8 8 8 8 8 9 10 10 14 15 15 14 13 17 20 18 19 18 19 19 21 22 22 22 21 22 23 24 22 22 22 23 23 25 25 24 24 23
9 9 9 9 8 8 8 8 8 8 8 8 8 8 8 10 13 14 15 13 13 14 17 20 18 18 19 19 20 20 20 21 20 21 21 21 21 21 20 22 23 22 23 22 23 23 24
8 8 8 9 8 8 8 8 8 7 7 7 7 7 8 8 11 13 12 12 13 15 16 19 19 18 18 18 20 19 19 20 21 20 21 21 23 22 21 22 22 22 21 21 22 22 20
8 8 8 8 8 8 8 7 8 7 7 7 7 7 7 10 12 10 10 13 14 16 19 19 19 18 20 19 19 20 19 19 20 19 20 21 21 22 21 20 21 21 20 19 20 19 20
8 8 8 8 8 8 8 7 7 7 7 7 7 7 7 9 8 9 11 14 14 19 20 19 19 19 19 19 20 20 20 20 21 21 20 20 20 21 22 21 21 21 21 19 18 20 21
6 7 7 8 8 8 8 8 7 7 7 7 7 7 8 8 8 9 13 12 17 18 19 18 19 18 18 19 19 19 19 20 21 21 19 20 20 22 21 21 21 21 20 22 20 20 19
5 6 7 7 8 8 7 7 7 7 7 7 7 8 9 8 8 10 12 13 17 16 16 18 18 19 18 19 18 17 18 20 19 20 21 20 18 21 21 21 21 20 22 19 20 17 17
5 5 6 6 7 7 7 7 7 7 7 7 8 9 8 8 9 11 11 14 15 15 16 16 18 18 18 18 18 18 18 19 19 20 20 20 19 19 20 20 20 21 20 20 20 19 18
4 4 5 6 7 6 7 7 6 6 7 6 9 9 8 8 9 11 12 15 12 15 15 15 16 17 17 17 17 17 17 18 19 19 18 20 18 17 19 21 21 21 20 20 19 17 18
4 4 4 5 6 6 6 6 6 6 6 6 9 8 6 8 9 11 14 14 13 14 15 15 15 16 17 16 15 16 17 19 18 18 17 18 17 15 17 19 20 19 20 20 19 19 17
3 4 4 4 6 6 6 6 6 6 6 8 9 6 7 8 12 14 13 13 12 13 14 15 15 15 15 15 16 15 16 17 17 17 13 14 15 15 15 16 18 18 18 19 18 15 16
3 3 4 4 5 6 6 6 6 6 6 9 9 7 9 7 8 12 14 14 13 12 13 14 14 14 14 14 15 15 16 16 17 16 15 15 13 15 16 17 18 18 18 19 18 18 17
3 3 4 4 5 5 5 6 6 6 6 8 6 8 11 12 11 11 12 13 13 14 13 13 13 14 15 14 15 15 16 15 14 15 15 15 14 15 15 17 17 17 18 18 18 18 18
3 3 3 3 4 5 5 6 6 6 6 9 10 11 11 10 10 10 12 12 12 13 13 14 14 13 13 14 15 13 13 13 13 13 14 15 14 13 13 16 16 14 15 17 18 18 18
2 3 3 3 5 5 5 5 6 6 6 9 10 11 12 10 10 10 12 12 12 12 12 13 13 13 14 14 12 13 13 13 13 13 14 13 13 13 13 14 12 16 18 18 15 17 15
1 1 2 4 5 5 5 5 6 5 6 8 8 11 12 11 12 12 11 12 12 12 11 13 14 14 14 9 8 10 12 12 12 13 13 13 13 12 12 14 16 17 19 18 16 16 18
1 1 3 4 4 5 5 5 6 5 6 7 8 9 10 11 12 13 12 12 11 10 11 11 13 14 13 7 7 9 11 14 14 15 15 14 14 14 13 13 13 17 18 17 17 15 17
0 3 3 4 5 4 5 6 5 5 5 7 6 6 7 9 11 12 12 12 13 12 12 12 12 12 11 7 8 11 13 15 14 13 13 13 13 12 12 12 15 18 18 16 14 14 15
2 2 4 5 5 5 5 5 5 5 5 6 7 5 7 6 10 10 11 11 12 11 11 10 9 7 7 8 10 12 13 14 14 15 13 13 12 12 12 12 12 18 16 15 14 14 14
2 2 5 5 4 5 5 5 5 5 5 5 6 6 6 8 10 8 9 10 11 12 11 11 11 8 9 9 12 14 13 14 14 14 17 14 15 14 14 15 15 16 16 15 14 14 13

GFSGBSN_925_temp_162.txt.gz
Temp
14 14 14 14 14 14 14 14 14 14 14 14 14 14 14 13 13 14 14 14 14 14 14 15 15 16 17 23 26 22 22 23 23 24 26 27 27 27 27 28 29 28 29 30 30 28 28
14 14 14 14 14 14 14 14 14 13 14 14 14 14 14 14 13 13 14 13 14 14 14 14 14 15 19 21 24 23 23 23 24 25 26 26 26 27 26 27 27 28 28 29 29 29 28
14 14 14 14 14 13 13 13 14 14 14 14 14 14 13 13 13 13 13 13 13 14 14 14 14 14 17 21 24 23 23 23 24 24 25 26 25 25 27 26 27 27 26 28 28 29 28
12 12 12 13 13 13 13 13 13 13 13 13 13 13 13 13 13 12 12 12 13 14 14 14 14 13 18 23 23 22 23 24 24 24 24 24 24 25 25 27 26 26 27 26 29 30 29
12 11 12 10 11 11 10 11 12 12 12 12 12 13 13 13 13 13 12 12 13 13 13 14 13 16 20 22 23 23 23 24 25 24 24 24 24 24 26 24 25 27 25 27 29 30 29
11 11 11 10 11 11 11 11 12 12 12 12 13 12 12 12 12 12 12 13 14 12 14 13 16 18 20 23 24 23 23 23 24 24 24 24 24 24 25 25 24 27 27 28 28 29 28
10 10 10 10 10 10 11 11 10 11 11 11 11 13 11 12 12 12 12 14 15 16 16 20 22 21 24 23 22 23 24 23 24 24 23 25 24 24 26 27 28 26 26 26 28 29 26
9 10 10 10 9 9 9 10 10 9 9 9 10 9 10 11 11 11 11 16 20 17 17 21 22 22 23 23 21 24 24 23 23 22 24 24 23 25 27 27 26 25 24 25 26 28 27
9 9 9 9 9 9 9 9 9 9 9 9 9 9 9 9 10 10 12 16 17 17 17 21 23 23 23 22 21 22 24 23 22 23 23 23 25 26 25 24 24 24 24 24 24 26 27
9 9 9 9 9 9 8 8 9 8 8 8 8 8 9 9 10 13 14 16 16 15 16 21 20 21 21 21 20 23 23 23 23 22 23 23 25 25 24 23 24 22 25 24 24 23 23
9 9 9 9 9 9 8 8 8 8 8 8 8 8 8 9 9 16 17 16 14 15 15 22 20 20 21 20 21 21 22 23 21 22 22 21 23 22 21 22 23 22 23 22 22 21 21
8 8 8 9 9 9 8 8 8 8 7 7 7 8 8 8 10 13 14 14 14 14 15 20 20 19 19 20 21 21 21 22 23 21 22 22 23 23 23 23 23 23 22 21 21 21 19
7 7 8 8 8 8 8 8 8 8 7 7 7 7 8 10 12 11 12 13 13 14 21 21 20 20 20 19 21 20 20 19 20 19 19 21 21 23 23 21 22 22 20 18 18 19 19
6 7 7 8 8 8 8 8 8 7 7 7 7 7 7 8 10 10 11 12 12 19 19 22 21 20 20 21 20 21 21 20 22 21 21 20 20 23 24 22 20 21 21 19 17 18 19
5 6 6 7 7 8 8 8 8 7 7 7 7 7 8 9 8 9 11 10 15 18 21 20 20 19 20 21 20 20 20 20 22 23 19 20 21 23 22 22 22 20 19 22 20 20 18
5 5 6 6 7 7 7 8 8 7 7 7 7 8 9 9 8 9 10 12 15 18 17 19 18 19 19 19 19 19 19 21 21 22 22 20 18 21 22 22 22 20 21 19 20 17 17
4 4 5 6 6 6 6 7 8 7 7 7 7 9 10 9 9 10 10 13 16 17 17 17 18 18 19 19 20 19 19 20 20 20 20 20 19 19 21 20 20 21 21 21 20 19 17
4 4 5 5 5 6 6 6 7 7 7 7 9 9 8 9 9 11 11 13 15 17 16 16 16 18 18 19 19 18 18 20 20 20 18 20 18 17 19 21 22 21 20 20 18 18 18
3 4 4 4 5 5 6 6 6 7 7 7 9 8 8 9 9 11 13 13 16 15 16 16 16 17 18 17 17 17 18 20 20 19 17 18 17 15 17 19 20 19 20 20 20 19 17
3 3 4 4 4 5 5 6 6 6 6 7 8 6 8 8 12 13 13 14 14 14 15 16 16 17 16 16 17 17 17 18 18 18 13 15 15 15 14 16 17 17 18 19 19 15 15
3 3 3 3 4 4 6 6 6 5 6 7 9 9 10 7 9 12 14 14 14 13 14 15 15 15 15 15 16 16 17 17 17 16 16 15 14 15 15 16 17 17 17 18 17 18 16
3 3 3 3 3 4 5 5 5 5 5 6 7 10 11 13 11 10 12 13 14 15 14 13 14 15 15 15 15 15 17 17 16 17 16 16 13 14 14 16 16 16 17 18 18 18 18
3 3 3 3 3 4 4 5 5 5 4 7 10 11 13 11 11 10 10 12 13 15 15 15 15 15 15 16 15 15 14 14 14 14 14 14 14 14 13 15 15 13 15 17 18 18 18
3 3 3 3 3 3 4 4 4 4 4 8 11 12 12 10 11 10 12 12 13 14 14 15 15 14 16 14 14 14 14 14 14 14 14 13 13 13 12 13 11 15 18 18 16 18 16
2 3 3 3 3 3 4 5 5 4 4 6 11 11 11 10 11 11 12 12 14 14 13 14 14 15 15 12 11 11 12 13 13 14 14 14 12 10 10 12 14 15 18 18 14 14 13
2 2 2 2 2 3 3 4 5 4 4 6 9 10 11 11 12 13 12 12 12 12 13 13 14 14 14 8 8 10 11 14 15 15 16 15 13 10 12 11 12 16 16 14 17 14 17
2 2 2 2 2 2 3 4 5 4 4 6 7 8 9 10 14 14 13 13 13 13 12 13 13 12 13 8 8 10 11 14 13 14 14 13 12 11 11 11 14 17 18 17 13 14 16
2 2 2 2 1 3 3 4 4 4 4 5 7 7 9 9 11 12 13 13 13 13 12 13 11 9 8 8 8 11 12 14 15 16 14 12 12 12 12 12 11 17 17 12 14 15 14
2 2 2 1 2 3 3 4 4 4 4 6 6 7 7 8 10 9 10 10 11 11 11 10 10 8 9 8 10 12 12 13 14 13 16 12 14 14 14 14 12 12 12 15 15 15 14

GFSGBSN_925_temp_168.txt.gz
Temp
14 14 14 15 15 15 15 15 14 14 14 14 14 14 14 13 13 14 14 13 14 14 14 14 14 14 17 15 18 23 23 23 23 23 23 21 22 21 21 21 22 24 24 24 23 24 25
14 14 14 14 15 14 14 14 14 14 14 14 14 14 14 13 13 14 14 13 13 14 13 14 13 13 14 16 22 22 22 22 23 23 23 22 21 22 21 21 22 23 23 22 23 23 24
14 14 14 15 14 14 14 13 13 13 13 13 13 13 14 13 13 13 13 13 13 15 14 13 13 12 12 15 22 22 21 22 23 23 22 23 23 21 20 20 22 23 22 21 22 23 24
13 14 13 13 14 14 13 13 12 12 13 12 12 13 13 12 12 13 12 13 13 14 14 13 13 11 12 20 20 20 23 22 23 23 23 23 23 22 21 21 21 22 21 20 22 23 23
11 11 11 12 13 12 11 11 12 12 12 12 12 12 12 12 12 12 13 13 15 14 14 13 13 12 13 20 20 23 22 22 23 23 23 24 23 20 20 20 18 19 19 20 21 22 22
10 11 10 10 11 10 10 11 12 11 11 11 11 12 12 11 12 12 13 14 16 14 14 11 12 13 15 20 22 22 23 23 22 21 22 21 19 18 16 16 17 19 20 20 21 22 22
10 10 10 10 10 10 10 10 11 11 10 11 11 12 11 11 11 12 13 15 13 13 13 14 15 15 18 21 21 22 23 22 22 21 19 19 17 16 17 18 20 20 20 19 21 22 23
10 10 10 10 10 10 10 10 10 10 10 10 10 11 12 12 11 12 12 11 14 14 11 15 15 16 17 18 17 19 22 21 20 18 19 17 16 18 19 20 20 20 20 19 20 22 22
9 9 9 9 9 9 9 9 9 9 9 9 10 11 9 9 12 13 11 12 14 14 11 15 17 17 17 18 17 18 21 20 19 18 18 16 18 20 20 20 20 21 20 20 20 19 20
9 9 9 9 9 9 9 9 9 9 9 8 8 9 10 11 11 10 11 13 14 13 9 14 17 17 19 19 18 20 21 19 19 18 18 17 19 20 19 20 20 20 20 20 19 17 17
9 9 9 9 9 9 9 9 8 8 8 8 8 8 8 9 9 10 12 13 14 14 11 17 19 20 19 19 20 20 21 18 18 18 18 17 19 19 19 20 21 19 20 19 19 17 16
8 8 8 8 9 8 9 8 8 8 8 8 8 8 8 9 9 11 12 13 15 9 10 16 18 18 18 18 18 19 19 20 19 17 17 16 19 19 19 20 21 20 19 17 16 15 12
7 8 8 8 8 8 8 8 8 8 8 8 8 8 8 8 9 10 11 12 9 9 15 18 17 17 17 16 17 18 17 17 16 16 15 17 18 18 19 19 19 19 16 13 13 13 14
6 7 7 7 8 8 8 8 8 8 8 8 8 7 8 8 9 9 11 9 9 13 14 18 18 17 15 16 17 17 17 15 16 16 15 15 15 19 19 18 17 17 16 13 14 14 14
5 5 6 7 7 7 8 8 8 8 8 7 7 7 7 8 9 8 7 6 10 13 16 16 17 17 15 17 16 17 15 15 17 16 15 16 17 19 20 19 18 18 16 17 15 14 12
5 5 5 5 6 7 7 7 7 7 7 7 7 6 7 8 8 8 7 10 10 14 16 16 15 16 15 16 16 15 16 18 18 18 17 17 16 18 18 19 19 17 18 16 13 14 14
4 4 4 5 5 6 6 7 7 7 7 7 7 5 9 8 8 6 6 7 11 13 14 15 14 14 15 17 17 16 16 18 19 18 18 17 15 15 18 17 17 16 16 16 15 12 12
4 4 4 4 4 5 5 6 6 6 6 5 6 5 8 8 6 6 7 9 12 12 14 14 15 14 14 15 15 16 16 17 17 18 16 16 14 13 15 17 17 16 16 16 11 14 11
3 3 3 3 4 4 5 5 6 6 6 5 5 4 7 8 7 6 8 9 10 12 13 13 14 15 15 14 15 15 16 17 18 15 15 15 13 10 13 14 14 15 15 15 14 12 12
3 3 3 3 3 4 4 4 5 5 6 6 4 5 6 7 6 7 8 8 9 11 12 12 14 14 14 14 15 14 15 17 16 14 14 14 13 12 10 13 13 12 14 14 14 9 10
3 3 3 3 3 3 4 4 4 5 5 5 4 5 6 6 6 7 8 9 9 10 12 12 12 12 13 12 14 13 14 15 15 14 14 13 12 12 13 13 13 13 13 13 12 12 11
3 3 3 3 3 3 4 4 4 4 5 5 4 5 6 5 8 6 6 7 9 10 12 12 12 13 12 11 12 13 13 13 13 13 13 12 12 12 12 13 13 12 13 13 13 13 13
3 3 3 3 3 3 3 4 4 4 4 4 4 6 6 6 7 6 7 8 9 11 11 11 11 12 11 11 12 11 12 11 12 12 11 11 11 10 10 12 10 9 10 12 13 13 13
2 2 2 3 3 3 3 3 3 4 4 4 5 6 4 5 6 7 9 9 9 10 10 11 10 10 11 12 12 12 12 12 11 11 11 10 10 8 9 10 9 10 12 13 11 12 11
2 2 2 2 2 3 3 3 3 4 4 4 5 5 5 5 7 8 9 9 9 10 10 10 9 10 10 9 7 9 8 10 11 11 11 11 9 7 8 8 11 11 13 12 12 11 13
2 2 2 2 2 3 3 3 3 3 4 3 4 5 5 5 7 10 9 9 7 7 9 10 11 9 8 7 6 8 9 10 11 12 12 11 10 8 7 8 9 10 13 15 13 8 12
2 2 2 2 2 2 3 3 3 3 3 3 4 4 5 5 6 7 7 8 8 8 7 10 10 10 8 3 6 7 8 11 9 11 11 8 7 8 8 9 8 11 12 14 11 10 10
1 2 2 2 2 2 3 3 3 3 3 3 4 4 5 5 5 8 8 8 8 8 8 9 8 6 4 5 7 7 7 9 9 11 11 9 8 9 9 9 9 12 12 11 9 9 10
1 2 2 2 2 2 2 3 3 2 3 3 3 3 4 4 5 7 8 9 9 9 7 7 8 7 6 6 6 7 7 8 8 9 11 9 10 8 9 9 10 11 10 11 9 10 10